"Pseudo-MPEC" for P11Jurt

Created 2023 Sep 19 16:22:32 UT using Find_Orb

Click here for an explanation of pseudo-MPECs

 
 Astrometry: 
     P11Jurt  C2023 09 06a9In\y!bsNyQo\cVjI2Z5bie(4]oCx/;!WQUX:(`m4U)QedA4vV$F51
     P11Jurt  C2023 09 06^EC@YZ5WXDL3UXh3LKt?_)H6ofW]g;T3^tFr0WP.^d`Qh1Kap/c,F51
     P11Jurt  C2023 09 06XPol+1GrIusB+PLnhj2^Qcb5gYD+?V[]K'C\(;,$4(c?T1-EClP-F51
     P11Jurt* C2023 09 14r8v:KtEkPZ(!aK8DAxU?NZQ\YN(/[T1nMAstrometry+9r5M!7iLF51
     P11Jurt  C2023 09 14)3m'i#-.QA9g!hod#redacted;Jf5r:tf209g!(:*oa1^rGJ9`7nF51
     P11Jurt  C2023 09 14(aY,1Eu]_oILYc9ZE-;I)Sg!7o;)cCjB)!h$8'Nb--%GclickBJ.F51
     P11Jurt  C2023 09 14`?WjMyEM6:h?$f/odhereht#JH?W/DXQHA8hx\;Q'BhveaTQKTiwF51
     P11Jurt  C2023 09 16NFGPeX`ck722OTdeImE^i0EC;JQp:ND`Ouforb[iSrUe/)g2E4X)X09
     P11Jurt  C2023 09 16WB)Texplanation8-,.G4Rbd'hLb1Y5gxkP'2=MGO0XKm3c!?K-XX09

Station data:
(F51) Pan-STARRS 1, Haleakala  (N20.707234 W156.255910)  US/Hawaii.
   Observers J. Bulger, T. Lowe, A. Schultz, M. Willman. Measurers K.
   Chambers, S. Chastel, T. de Boer, L. Denneau, J. Fairlamb, H. Flewelling,
   M. Huber, C.-C. Lin, E. Magnier, Y. Ramanjooloo, R. Wainscoat, R. Weryk.
   1.8-m Ritchey-Chrétien + CCD.
(X09) Deep Random Survey, Rio Hurtado  (S30.526310 W70.853300)  Chile.

Orbital elements:  P11Jurt
   Perihelion 2023 Nov 17.49751 +/- 0.882 TT = 11:56:25 (JD 2460265.99751)
Epoch 2023 Sep 16.0 TT = JDT 2460203.5   Earth MOID: 0.4728   Ma: 0.0994
M 332.64563374 +/- 0.7              (J2000 ecliptic)             AutoNEOCP
n   0.43768728 +/- 0.00636          Peri.  228.79643 +/- 0.7
a   1.71801424 +/- 0.0166           Node   162.45700 +/- 0.06
e   0.1721045 +/- 0.00396           Incl.   25.84355 +/- 0.38
P   2.25/822.49d           H 21.73  G  0.15   U  9.3
q 1.42233620 +/- 0.00699    Q 2.01369229 +/- 0.0263
From 9 observations 2023 Sept. 6-16; mean residual 0".33
Residuals in arcseconds: 
230906 F51  .11-  .62-    230914 F51  .11-  .12-    230914 F51  .12+  .14+    
230906 F51  .07-  .01+    230914 F51  .05+  .06-    230916 X09  .60+  .46+    
230906 F51  .18+  .61+    230914 F51  .06-  .02+    230916 X09  .58-  .42-    

Ephemerides (geocentric):
Date (UTC) HH   RA             Dec           delta  r     elong  mag " sig PA
---- --------  ------------   ------------  ------ ------ -----  --- --------
2023 09 19 16  23 45 17.996   -20 01 23.32  .47617 1.4640 161.5 21.7 2.52 103
2023 09 19 17  23 45 17.284   -20 03 31.72  .47622 1.4640 161.5 21.7 2.55 104
2023 09 19 18  23 45 16.571   -20 05 40.06  .47628 1.4639 161.4 21.7 2.57 104
2023 09 19 19  23 45 15.859   -20 07 48.31  .47633 1.4639 161.4 21.7 2.60 104
2023 09 19 20  23 45 15.146   -20 09 56.49  .47638 1.4638 161.3 21.7 2.63 104
2023 09 19 21  23 45 14.433   -20 12 04.59  .47643 1.4638 161.2 21.7 2.65 105
2023 09 19 22  23 45 13.721   -20 14 12.62  .47649 1.4637 161.2 21.7 2.68 105
2023 09 19 23  23 45 13.008   -20 16 20.56  .47654 1.4636 161.1 21.7 2.70 105
2023 09 20 00  23 45 12.295   -20 18 28.43  .47659 1.4636 161.1 21.7 2.73 105
2023 09 20 01  23 45 11.582   -20 20 36.22  .47665 1.4635 161.0 21.7 2.75 106
2023 09 20 02  23 45 10.870   -20 22 43.94  .47670 1.4635 161.0 21.7 2.78 106
2023 09 20 03  23 45 10.157   -20 24 51.57  .47676 1.4634 160.9 21.7 2.81 106
2023 09 20 04  23 45 09.444   -20 26 59.13  .47681 1.4634 160.9 21.7 2.83 107
2023 09 20 05  23 45 08.731   -20 29 06.60  .47687 1.4633 160.8 21.7 2.86 107
2023 09 20 06  23 45 08.018   -20 31 14.00  .47692 1.4632 160.8 21.7 2.89 107
2023 09 20 07  23 45 07.306   -20 33 21.32  .47698 1.4632 160.7 21.7 2.91 107
2023 09 20 08  23 45 06.593   -20 35 28.55  .47704 1.4631 160.7 21.7 2.94 108
2023 09 20 09  23 45 05.880   -20 37 35.71  .47710 1.4631 160.6 21.7 2.97 108
2023 09 20 10  23 45 05.168   -20 39 42.78  .47715 1.4630 160.6 21.7 3.00 108
2023 09 20 11  23 45 04.455   -20 41 49.77  .47721 1.4630 160.5 21.7 3.02 109
2023 09 20 12  23 45 03.743   -20 43 56.68  .47727 1.4629 160.5 21.7 3.05 109
2023 09 20 13  23 45 03.031   -20 46 03.51  .47733 1.4629 160.4 21.7 3.08 109
2023 09 20 14  23 45 02.318   -20 48 10.26  .47739 1.4628 160.4 21.7 3.11 110
2023 09 20 15  23 45 01.606   -20 50 16.92  .47745 1.4627 160.3 21.7 3.13 110
2023 09 20 16  23 45 00.894   -20 52 23.50  .47751 1.4627 160.2 21.7 3.16 110
2023 09 20 17  23 45 00.182   -20 54 30.00  .47757 1.4626 160.2 21.7 3.19 110
2023 09 20 18  23 44 59.470   -20 56 36.41  .47763 1.4626 160.1 21.7 3.22 111
2023 09 20 19  23 44 58.759   -20 58 42.74  .47770 1.4625 160.1 21.7 3.25 111
2023 09 20 20  23 44 58.047   -21 00 48.99  .47776 1.4625 160.0 21.7 3.28 111
2023 09 20 21  23 44 57.336   -21 02 55.15  .47782 1.4624 160.0 21.7 3.31 112
2023 09 20 22  23 44 56.625   -21 05 01.23  .47788 1.4624 159.9 21.7 3.34 112
2023 09 20 23  23 44 55.914   -21 07 07.22  .47795 1.4623 159.9 21.7 3.36 112
2023 09 21 00  23 44 55.203   -21 09 13.12  .47801 1.4622 159.8 21.7 3.39 113
2023 09 21 01  23 44 54.492   -21 11 18.94  .47808 1.4622 159.8 21.7 3.42 113
2023 09 21 02  23 44 53.782   -21 13 24.68  .47814 1.4621 159.7 21.7 3.45 113
2023 09 21 03  23 44 53.072   -21 15 30.32  .47821 1.4621 159.7 21.7 3.48 113
2023 09 21 04  23 44 52.362   -21 17 35.88  .47827 1.4620 159.6 21.7 3.51 114
2023 09 21 05  23 44 51.652   -21 19 41.36  .47834 1.4620 159.5 21.8 3.55 114
2023 09 21 06  23 44 50.943   -21 21 46.74  .47841 1.4619 159.5 21.8 3.58 114
2023 09 21 07  23 44 50.233   -21 23 52.04  .47847 1.4619 159.4 21.8 3.61 115
2023 09 21 08  23 44 49.524   -21 25 57.25  .47854 1.4618 159.4 21.8 3.64 115
2023 09 21 09  23 44 48.815   -21 28 02.37  .47861 1.4617 159.3 21.8 3.67 115
2023 09 21 10  23 44 48.107   -21 30 07.41  .47868 1.4617 159.3 21.8 3.70 116
2023 09 21 11  23 44 47.399   -21 32 12.35  .47875 1.4616 159.2 21.8 3.73 116
2023 09 21 12  23 44 46.691   -21 34 17.21  .47881 1.4616 159.2 21.8 3.76 116
2023 09 21 13  23 44 45.983   -21 36 21.97  .47888 1.4615 159.1 21.8 3.80 116
2023 09 21 14  23 44 45.276   -21 38 26.65  .47895 1.4615 159.1 21.8 3.83 117
2023 09 21 15  23 44 44.569   -21 40 31.23  .47902 1.4614 159.0 21.8 3.86 117